{"data":{"norad_id":65613,"intl_designator":"2025-207X","name":"STARLINK-35162","alt_names":[],"object_type":"PAYLOAD","status":"ACTIVE","operator":null,"country":"US","launch_date":"2025-09-13","launch_site_code":"AFWTR","launch_vehicle":null,"mission":null,"orbit_class":"UNKNOWN","rcs_meters":null,"size_class":null,"mass_kg":null,"dimensions":null,"purposes":["comms"],"wikipedia_slug":null,"has_3d_model":false,"image_url":null,"decayed_at":null,"tle_current":{"epoch":"2026-05-25T04:27:32.479776Z","epoch_age_seconds":73138,"freshness":"FRESH","line1":"1 65613U 25207X   26145.18579259  .00006262  00000+0  43744-3 0  9991","line2":"2 65613  97.4510 213.7248 0002666 131.5469 228.5987 15.05665802 39770","mean_motion":15.05665802,"eccentricity":0.0002666,"inclination_deg":97.451,"raan_deg":213.7248,"arg_perigee_deg":131.5469,"mean_anomaly_deg":228.5987,"bstar":0.00043744,"rev_number":3977,"period_min":95.638753173993,"perigee_km":547.61578531907,"apogee_km":551.30958147026,"semimajor_km":6927.5996833947,"source":"CELESTRAK","updated_at":"2026-05-25T13:38:20.856663Z"}}}